Hourly Data Report for October 05, 2017

All times are specified in Local Standard Time (LST). Add 1 hour to adjust for Daylight Saving Time where and when it is observed.

QUALICUM BEACH AIRPORT
BRITISH COLUMBIA

49°20'14.000" N
124°23'38.000" W
58.20 m
1026562
71766
VOQ

Download Data

Hourly Data (October 2017)
Hourly Data Report for October 5, 2017
Temp Definition
°C
Dew Point Temp Definition
°C
Rel Hum Definition
%
Wind Dir Definition
10's deg

Wind Spd Definition
km/h
Visibility Definition
km
Stn Press Definition
kPa
Hmdx Definition


Wind Chill Definition


Weather Definition


TIME
00:00 5.1 3.7 91 28 2   101.50     LegendNANA
01:00 4.0 3.1 94 23 2   101.52     LegendNANA
02:00 3.8 2.9 94 25 2   101.54     LegendNANA
03:00 2.6 1.9 95 22 2   101.55     LegendNANA
04:00 2.8 2.2 96 25 1   101.56     LegendNANA
05:00 2.5 1.7 95 23 2   101.54     LegendNANA
06:00 2.5 1.9 96 26 1   101.55     LegendNANA
07:00 3.4 2.5 94 26 2   101.58     LegendNANA
08:00 6.6 4.3 85 0 1   101.60     LegendNANA
09:00 13.4 8.1 71 29 2   101.62     LegendNANA
10:00 13.7 8.7 72 36 6   101.62     LegendNANA
11:00 14.0 9.2 73 2 5   101.58     LegendNANA
12:00 15.5 8.8 65 2 5   101.54     LegendNANA
13:00 15.1 6.1 55 3 6   101.46     LegendNANA
14:00 16.5 5.5 48 1 5   101.40     LegendNANA
15:00 15.9 5.7 50 36 6   101.37     LegendNANA
16:00 16.7 5.8 48 4 4   101.35     LegendNANA
17:00 15.7 6.4 54 14 1   101.31     LegendNANA
18:00 11.6 6.7 72 31 4   101.29     LegendNANA
19:00 9.5 6.3 81 24 1   101.30     LegendNANA
20:00 7.7 5.9 89 28 2   101.29     LegendNANA
21:00 6.9 5.6 91 21 1   101.28     LegendNANA
22:00 5.8 4.8 93 20 3   101.27     LegendNANA
23:00 5.0 4.1 94 21 2   101.28     LegendNANA

Notes on Data Quality.

Legend

  • E = Estimated
  • M = Missing
  • NA = Not Available
  • ‡ = Partner data that is not subject to review by the National Climate Archives
Date modified: